Weather History for Burlington, NC

Change the Weather History Date:

Tuesday, October 1, 2013

  Actual Average Record
Temperature  
Mean Temperature 66 °F -  
Max Temperature 82 °F 74 °F 91 °F (1954)
Min Temperature 50 °F 52 °F 37 °F (1993)
Growing Degree Days 16 (Base 50)    
Moisture  
Dew Point 55 °F    
Average Humidity 72    
Maximum Humidity 90    
Minimum Humidity 38    
Precipitation  
Precipitation 0.00 in - - ()
Sea Level Pressure  
Sea Level Pressure 30.08 in    
Wind  
Wind Speed 1 mph (West)    
Max Wind Speed 6 mph    
Max Gust Speed -    
Visibility 9 miles    
Events      
Averages and records for this station are not official NWS values.
T = Trace of Precipitation, MM = Missing Value Source: NWS Daily Summary

Daily Weather History Graph

Daily Weather History Graph

Search for Another Location

Airport:

Trip Planner

Search our weather history database for the weather conditions in past years. The results will help you decide how hot, cold, wet, or windy it might be!

Date:

Astronomy

Oct. 01, 2013 Rise Set
Actual Time 7:13 AM EDT 7:01 PM EDT
Civil Twilight 6:47 AM EDT 7:26 PM EDT
Nautical Twilight 6:17 AM EDT 7:56 PM EDT
Astronomical Twilight 5:47 AM EDT 8:26 PM EDT
Moon 3:51 AM EDT (10/1) 4:59 PM EDT (10/1)
Length of Visible Light 12h 39m
Length of Day
11h 48m
Waning Crescent, 12% of the Moon is Illuminated
Oct 1
Waning Crescent
Oct 4
New
Oct 11
First Quarter
Oct 18
Full
Oct 26
Last Quarter

Hourly Weather History & Observations

Time (EDT) Temp. Heat Index Dew Point Humidity Pressure Visibility Wind Dir Wind Speed Gust Speed Precip Events Conditions
12:54 AM 55.9 °F - 53.1 °F 90% 30.07 in 10.0 mi Calm Calm - N/A   Clear
1:54 AM 53.1 °F - 50.0 °F 89% 30.07 in 10.0 mi Calm Calm - N/A   Clear
2:54 AM 54.0 °F - 51.1 °F 90% 30.06 in 10.0 mi Calm Calm - N/A   Clear
3:54 AM 53.1 °F - 50.0 °F 89% 30.07 in 10.0 mi Calm Calm - N/A   Clear
4:54 AM 55.0 °F - 52.0 °F 89% 30.07 in 10.0 mi Calm Calm - N/A   Clear
5:54 AM 50.0 °F - 46.9 °F 89% 30.09 in 7.0 mi Calm Calm - N/A   Clear
6:54 AM 51.1 °F - 48.0 °F 89% 30.10 in 10.0 mi Calm Calm - N/A   Clear
7:54 AM 53.1 °F - 50.0 °F 89% 30.12 in 10.0 mi Calm Calm - N/A   Clear
8:54 AM 60.1 °F - 55.0 °F 83% 30.12 in 10.0 mi Calm Calm - N/A   Clear
9:54 AM 66.9 °F - 57.0 °F 70% 30.12 in 10.0 mi WSW 4.6 mph - N/A   Clear
10:54 AM 73.0 °F - 57.9 °F 59% 30.12 in 10.0 mi SW 5.8 mph - N/A   Clear
11:54 AM 75.9 °F - 57.9 °F 54% 30.11 in 10.0 mi Variable 4.6 mph - N/A   Clear
12:54 PM 79.0 °F - 57.0 °F 47% 30.09 in 10.0 mi Calm Calm - N/A   Partly Cloudy
1:54 PM 80.1 °F 80.1 °F 55.0 °F 42% 30.07 in 10.0 mi Calm Calm - N/A   Partly Cloudy
2:54 PM 80.1 °F 80.1 °F 55.0 °F 42% 30.05 in 10.0 mi NNW 5.8 mph - N/A   Mostly Cloudy
3:54 PM 80.1 °F 80.0 °F 54.0 °F 40% 30.03 in 10.0 mi SW 5.8 mph - N/A   Partly Cloudy
4:54 PM 81.0 °F 80.4 °F 53.1 °F 38% 30.03 in 10.0 mi Variable 4.6 mph - N/A   Clear
5:54 PM 79.0 °F - 54.0 °F 42% 30.04 in 10.0 mi WNW 3.5 mph - N/A   Overcast
6:54 PM 73.0 °F - 57.9 °F 59% 30.05 in 10.0 mi Calm Calm - N/A   Partly Cloudy
7:54 PM 66.0 °F - 60.1 °F 81% 30.06 in 10.0 mi Calm Calm - N/A   Clear
8:54 PM 64.0 °F - 59.0 °F 84% 30.07 in 10.0 mi Calm Calm - N/A   Clear
9:54 PM 64.0 °F - 60.1 °F 87% 30.08 in 8.0 mi Calm Calm - N/A   Scattered Clouds
10:54 PM 62.1 °F - 57.9 °F 86% 30.09 in 5.0 mi Calm Calm - N/A   Clear
11:54 PM 63.0 °F - 60.1 °F 90% 30.08 in 5.0 mi Calm Calm - N/A   Clear